Flag for Netherlands Weather past 2 weeks in Tilburg, Netherlands

57 °F

Sprinkles. More clouds than sun.

Feels Like: 55 °F
Forecast: 53 / 58 °F
Wind: 9 mph from Southwest

Location: Gilze-Rijen

Current Time: Oct 7, 2015 at 8:16:26 PM

Latest Report: Oct 7, 2015 at 7:55 PM

Visibility: 6 mi

Pressure: 29.89 "Hg

Humidity: 94%

Dew point: 55 °F

Location of TilburgLocation

Historic Weather in Tilburg — Graph


Tilburg temperature yesterday

Maximum temperature yesterday: 66 °F (at 6:25 PM)
Minimum temperature yesterday: 57 °F (at 12:25 AM)
Average temperature yesterday: 60 °F

Past Weeks' High & Low Weather Summary

High66 °F (Oct 3, 2:55 PM)100% (Sep 22, 8:25 PM)30.66 "Hg (Sep 22, 8:25 PM)
Low37 °F (Sep 26, 8:02 AM)49% (Sep 29, 4:55 PM)29.47 "Hg (Sep 22, 6:25 PM)
Average54 °F85%30.13 "Hg
* Reported Sep 22 6:25 PM — Oct 7 6:55 PM, Tilburg, Weather by CustomWeather, © 2015

Note: Actual official high and low records may vary slightly from our data, if they occured in-between our weather recording intervals... More about our weather records


Tilburg weather history for previous 24 hours

Time TempWeatherWind HumidityBarometerVisibility
6:55 PM
Wed, Oct 7
57 °FCloudy.9 mph94%29.89 "HgN/A
6:25 PM57 °FMore clouds than sun.10 mph100%29.86 "HgN/A
6:01 PM57 °FDrizzle. Cloudy.9 mph100%29.86 "Hg6 mi
5:25 PM59 °FCloudy.10 mph94%29.86 "HgN/A
4:59 PM59 °FBroken clouds.10 mph94%29.83 "HgN/A
4:55 PM59 °FBroken clouds.10 mph94%29.83 "HgN/A
4:25 PM59 °FDrizzle. Broken clouds.12 mph94%29.83 "Hg3 mi
3:55 PM59 °FRain. Broken clouds.10 mph94%29.83 "Hg1 mi
3:25 PM59 °FLight rain. Cloudy.13 mph94%29.83 "Hg2 mi
2:55 PM61 °FPartly sunny.12 mph94%29.80 "HgN/A
2:25 PM59 °FDrizzle. Cloudy.14 mph100%29.80 "Hg2 mi
1:55 PM61 °FDrizzle. Broken clouds.9 mph88%29.80 "Hg2 mi
1:25 PM61 °FPartly sunny.13 mph88%29.80 "HgN/A
12:55 PM59 °FLow clouds.14 mph94%29.80 "HgN/A
12:25 PM61 °FCloudy.14 mph88%29.77 "HgN/A
11:59 AM61 °FMostly cloudy.15 mph83%29.77 "HgN/A
11:55 AM61 °FBroken clouds.14 mph88%29.77 "HgN/A
11:25 AM61 °FMostly cloudy.13 mph88%29.77 "HgN/A
10:55 AM61 °FBroken clouds.14 mph83%29.77 "HgN/A
10:25 AM59 °FOvercast.14 mph88%29.74 "HgN/A
9:55 AM59 °FOvercast.14 mph88%29.74 "HgN/A
9:25 AM59 °FMostly cloudy.12 mph88%29.74 "HgN/A
8:55 AM59 °FMostly cloudy.10 mph88%29.71 "HgN/A
8:25 AM59 °FOvercast.10 mph88%29.71 "HgN/A
7:55 AM57 °FOvercast.8 mph94%29.68 "HgN/A
7:25 AM57 °FOvercast.10 mph94%29.68 "HgN/A
6:59 AM57 °FMostly cloudy.10 mph94%29.68 "HgN/A
6:25 AM57 °FMostly cloudy.8 mph94%29.68 "HgN/A
5:55 AM57 °FOvercast.7 mph94%29.65 "HgN/A
5:25 AM57 °FPassing clouds.8 mph94%29.65 "HgN/A
4:55 AM57 °FPassing clouds.8 mph94%29.65 "HgN/A
4:25 AM57 °FPassing clouds.8 mph94%29.65 "HgN/A
4:04 AM59 °FPassing clouds.9 mph94%29.62 "HgN/A
3:25 AM59 °FPassing clouds.10 mph94%29.62 "HgN/A
2:55 AM59 °FOvercast.9 mph94%29.62 "HgN/A
2:25 AM59 °FPassing clouds.9 mph94%29.62 "HgN/A
1:55 AM61 °FPassing clouds.9 mph94%29.62 "HgN/A
1:25 AM59 °FPassing clouds.8 mph100%29.62 "HgN/A
12:55 AM61 °FPartly cloudy.7 mph94%29.62 "HgN/A
12:25 AM61 °FMostly cloudy.7 mph94%29.59 "HgN/A
11:55 PM
Tue, Oct 6
61 °FOvercast.8 mph94%29.59 "HgN/A
11:25 PM61 °FPassing clouds.7 mph94%29.59 "HgN/A
11:02 PM61 °FPassing clouds.8 mph94%29.59 "HgN/A
10:55 PM61 °FPassing clouds.8 mph94%29.59 "HgN/A
10:25 PM61 °FPassing clouds.7 mph94%29.59 "HgN/A
9:55 PM61 °FPartly cloudy.7 mph94%29.59 "HgN/A
9:25 PM61 °FCool.6 mph94%29.56 "HgN/A
8:55 PM61 °FPartly cloudy.2 mph94%29.56 "HgN/A
8:25 PM63 °FLight rain. Partly cloudy.8 mph94%29.56 "HgN/A
Weather by CustomWeather, © 2015

See weather overviewHow to use our weather pages